Salem, OR

8:27 PM PDT on July 23, 2017 (GMT -0700)
McNary

Weather History for KSLE - May, 2013

Change the Weather History Date:

Tuesday, May 21, 2013

  Actual Average Record
Temperature  
Mean Temperature 50 °F 57 °F  
Max Temperature 54 °F 69 °F 90 °F (1958)
Min Temperature 46 °F 46 °F 32 °F (1971)
Degree Days  
Heating Degree Days 15 8  
Month to date heating degree days 116 208  
Since 1 July heating degree days 4105 4451  
Cooling Degree Days 0 0  
Month to date cooling degree days 10 0  
Year to date cooling degree days 10 0  
Moisture  
Dew Point 45 °F    
Average Humidity 82    
Maximum Humidity 93    
Minimum Humidity 71    
Precipitation  
Precipitation 0.73 in 0.07 in 0.96 in (2010)
Month to date precipitation 1.17 1.48  
Year to date precipitation 8.82 18.80  
Snow  
Snow 0.00 in - - ()
Month to date snowfall 0.0  
Snow Depth 0.00 in    
Sea Level Pressure  
Sea Level Pressure 29.93 in    
Wind  
Wind Speed 8 mph (SW)    
Max Wind Speed 21 mph    
Max Gust Speed 28 mph    
Visibility 8 miles    
Events Rain    
T = Trace of Precipitation, MM = Missing Value Source: NWS Daily Summary

Daily Weather History Graph

Daily Weather History Graph

Search for Another Location

Airport or City:

Trip Planner

Search our weather history database for the weather conditions in past years. The results will help you decide how hot, cold, wet, or windy it might be!

Date:

Astronomy

May. 21, 2013 Rise Set
Actual Time 5:36 AM PDT 8:41 PM PDT
Civil Twilight 5:01 AM PDT 9:16 PM PDT
Nautical Twilight 4:16 AM PDT 10:01 PM PDT
Astronomical Twilight 3:22 AM PDT 10:55 PM PDT
Moon 4:52 PM PDT (5/21) 3:17 AM PDT (5/21)
Length of Visible Light 16h 14m
Length of Day
15h 04m
Waxing Gibbous, 85% of the Moon is Illuminated
May 21
Waxing Gibbous
May 24
Full
May 31
Last Quarter
Jun 8
New
Jun 16
First Quarter

Hourly Weather History & Observations

Time (PDT) Temp. Windchill Dew Point Humidity Pressure Visibility Wind Dir Wind Speed Gust Speed Precip Events Conditions
12:56 AM 51.1 °F - 45.0 °F 80% 29.93 in 10.0 mi West 3.5 mph - 0.00 in   Overcast
1:56 AM 51.1 °F - 45.0 °F 80% 29.92 in 10.0 mi Calm Calm - 0.00 in Rain Light Rain
2:11 AM 51.8 °F - 44.6 °F 76% 29.93 in 10.0 mi WSW 3.5 mph - 0.00 in   Overcast
2:56 AM 48.0 °F - 46.0 °F 93% 29.93 in 10.0 mi WNW 5.8 mph - 0.02 in   Overcast
3:56 AM 48.0 °F - 46.0 °F 93% 29.91 in 6.0 mi West 4.6 mph - 0.06 in Rain Light Rain
4:05 AM 48.2 °F - 46.4 °F 93% 29.91 in 6.0 mi West 4.6 mph - 0.02 in Rain Light Rain
4:23 AM 48.2 °F - 46.4 °F 93% 29.91 in 8.0 mi Calm Calm - 0.02 in Rain Light Rain
4:42 AM 48.2 °F - 48.2 °F 100% 29.92 in 5.0 mi Calm Calm - 0.06 in Rain Rain
4:56 AM 48.0 °F - 46.9 °F 96% 29.91 in 7.0 mi Calm Calm - 0.07 in Rain Light Rain
5:36 AM 48.2 °F - 46.4 °F 93% 29.90 in 10.0 mi SSE 3.5 mph - 0.02 in   Overcast
5:56 AM 48.0 °F - 45.0 °F 89% 29.90 in 10.0 mi South 5.8 mph - 0.02 in Rain Light Rain
6:56 AM 48.0 °F - 46.0 °F 93% 29.89 in 10.0 mi South 6.9 mph - 0.00 in   Overcast
7:56 AM 48.9 °F - 46.9 °F 93% 29.88 in 10.0 mi SSE 3.5 mph - 0.00 in Rain Light Rain
8:38 AM 48.2 °F - 46.4 °F 93% 29.89 in 7.0 mi South 6.9 mph - 0.00 in   Overcast
8:56 AM 48.9 °F - 46.9 °F 93% 29.89 in 4.0 mi South 6.9 mph - 0.00 in   Overcast
9:23 AM 48.2 °F - 46.4 °F 93% 29.89 in 7.0 mi SSW 5.8 mph - 0.00 in Rain Light Rain
9:56 AM 50.0 °F - 48.0 °F 93% 29.88 in 6.0 mi South 5.8 mph - 0.02 in Rain Light Rain
10:56 AM 52.0 °F - 46.9 °F 83% 29.87 in 7.0 mi SSW 5.8 mph - 0.01 in   Overcast
11:56 AM 54.0 °F - 45.0 °F 72% 29.86 in 10.0 mi SW 5.8 mph - 0.00 in   Overcast
12:03 PM 53.6 °F - 44.6 °F 72% 29.86 in 10.0 mi Calm Calm - N/A   Overcast
12:19 PM 51.8 °F - 46.4 °F 82% 29.86 in 6.0 mi West 8.1 mph - 0.01 in Rain Rain
12:56 PM 50.0 °F - 46.9 °F 89% 29.87 in 8.0 mi West 9.2 mph - 0.15 in Rain Light Rain
1:56 PM 48.0 °F - 44.1 °F 86% 29.89 in 8.0 mi West 16.1 mph 24.2 mph 0.14 in Rain Light Rain
2:56 PM 46.9 °F - 43.0 °F 86% 29.92 in 6.0 mi West 12.7 mph - 0.04 in Rain Light Rain
3:56 PM 48.0 °F - 44.1 °F 86% 29.96 in 10.0 mi SW 5.8 mph - 0.02 in Rain Light Rain
4:53 PM 48.2 °F - 44.6 °F 87% 29.97 in 4.0 mi SW 6.9 mph - 0.03 in Rain Light Rain
4:56 PM 46.9 °F - 44.1 °F 90% 29.98 in 4.0 mi WSW 9.2 mph - 0.04 in Rain Rain
5:56 PM 46.0 °F 42.5 °F 44.1 °F 93% 30.00 in 8.0 mi SW 6.9 mph - 0.11 in Rain Light Rain
6:56 PM 46.9 °F - 43.0 °F 86% 30.00 in 10.0 mi SSW 6.9 mph - 0.03 in   Overcast
7:56 PM 46.0 °F 42.5 °F 42.1 °F 86% 30.00 in 10.0 mi South 6.9 mph - N/A   Mostly Cloudy
8:56 PM 44.1 °F 39.5 °F 42.1 °F 93% 30.00 in 10.0 mi South 8.1 mph - N/A   Mostly Cloudy
9:56 PM 43.0 °F 38.2 °F 41.0 °F 93% 30.01 in 10.0 mi South 8.1 mph - N/A   Scattered Clouds
10:56 PM 43.0 °F 37.2 °F 39.9 °F 89% 30.01 in 10.0 mi South 10.4 mph - N/A   Scattered Clouds
11:56 PM 42.1 °F 36.6 °F 39.0 °F 89% 30.01 in 10.0 mi South 9.2 mph - N/A   Scattered Clouds